Location: Bun Machan
(52.1403°N, 7.3744°W)
Time: 17:58:00
(UTC+00:00)

Nimbus 7 Rocket - Pass Details

Date: 14 July 2020
Orbit: 922 x 965 km, 99.4° (Epoch: 12 August)

Event Time Altitude Azimuth Distance (km) Brightness Sun altitude
Rises 00:14:40 0° 15° (NNE) 3,608 8.9 -16.1°
Reaches altitude 10° 00:17:07 10° 14° (NNE) 2,654 7.9 -16.1°
Maximum altitude 00:23:02 77° 290° (WNW) 957 4.5 -16.2°
Enters shadow 00:27:12 20° 207° (SSW) 1,985 5.6 -16.2°
